Time,TemperatureF,DewpointF,PressureIn,WindDirection,WindDirectionDegrees,WindSpeedMPH,WindSpeedGustMPH,Humidity,HourlyPrecipIn,Conditions,Clouds,dailyrainin,SoftwareType,DateUTC
2013-04-17 00:02:00,51.0,46.0,29.91,NE,54,0.0,-999.0,84,-99.99,,,-99.99,,2013-04-17 05:02:00,
2013-04-17 00:12:00,51.0,46.0,29.91,NE,54,0.0,-999.0,84,-99.99,,,-99.99,,2013-04-17 05:12:00,
2013-04-17 00:22:00,52.0,47.0,29.91,North,349,0.0,-999.0,84,-99.99,,,-99.99,,2013-04-17 05:22:00,
2013-04-17 00:32:00,52.0,47.0,29.91,NE,56,0.0,-999.0,84,-99.99,,,-99.99,,2013-04-17 05:32:00,
2013-04-17 00:42:00,52.0,47.0,29.91,NE,56,0.0,-999.0,84,-99.99,,,-99.99,,2013-04-17 05:42:00,
2013-04-17 00:52:00,52.0,47.0,29.92,North,353,0.0,-999.0,83,-99.99,,,-99.99,,2013-04-17 05:52:00,
2013-04-17 01:02:00,52.0,47.0,29.92,North,357,0.0,-999.0,83,-99.99,,,-99.99,,2013-04-17 06:02:00,
2013-04-17 01:12:00,52.0,47.0,29.92,North,357,0.0,-999.0,83,-99.99,,,-99.99,,2013-04-17 06:12:00,
2013-04-17 01:22:00,52.0,47.0,29.91,North,360,1.0,-999.0,83,-99.99,,,-99.99,,2013-04-17 06:22:00,
2013-04-17 01:32:00,52.0,47.0,29.91,NNW,339,0.0,-999.0,83,-99.99,,,-99.99,,2013-04-17 06:32:00,
2013-04-17 01:42:00,52.0,47.0,29.91,NNW,339,0.0,-999.0,83,-99.99,,,-99.99,,2013-04-17 06:42:00,
2013-04-17 01:52:00,52.0,47.0,29.91,North,349,0.0,-999.0,83,-99.99,,,-99.99,,2013-04-17 06:52:00,
2013-04-17 02:02:00,52.0,47.0,29.91,North,360,0.0,-999.0,83,-99.99,,,-99.99,,2013-04-17 07:02:00,
2013-04-17 02:12:00,52.0,47.0,29.91,North,360,0.0,-999.0,83,-99.99,,,-99.99,,2013-04-17 07:12:00,
2013-04-17 02:22:00,52.0,47.0,29.91,NNW,347,0.0,-999.0,83,-99.99,,,-99.99,,2013-04-17 07:22:00,
2013-04-17 02:32:00,52.0,47.0,29.91,NNW,347,0.0,-999.0,83,-99.99,,,-99.99,,2013-04-17 07:32:00,
2013-04-17 02:42:00,52.0,47.0,29.91,NNW,347,0.0,-999.0,83,-99.99,,,-99.99,,2013-04-17 07:42:00,
2013-04-17 02:52:00,52.0,47.0,29.90,North,8,0.0,-999.0,84,-99.99,,,-99.99,,2013-04-17 07:52:00,
2013-04-17 03:02:00,52.0,47.0,29.90,NNE,31,0.0,-999.0,84,-99.99,,,-99.99,,2013-04-17 08:02:00,
2013-04-17 03:12:00,52.0,47.0,29.90,NNE,31,0.0,-999.0,84,-99.99,,,-99.99,,2013-04-17 08:12:00,
2013-04-17 03:22:00,52.0,47.0,29.89,North,354,0.0,-999.0,84,-99.99,,,-99.99,,2013-04-17 08:22:00,
2013-04-17 03:32:00,52.0,47.0,29.89,North,360,0.0,-999.0,84,-99.99,,,-99.99,,2013-04-17 08:32:00,
2013-04-17 03:42:00,52.0,47.0,29.89,North,360,0.0,-999.0,84,-99.99,,,-99.99,,2013-04-17 08:42:00,
2013-04-17 03:52:00,52.0,48.0,29.88,North,360,0.0,-999.0,85,-99.99,,,-99.99,,2013-04-17 08:52:00,
2013-04-17 04:02:00,52.0,48.0,29.88,North,360,0.0,-999.0,85,-99.99,,,-99.99,,2013-04-17 09:02:00,
2013-04-17 04:12:00,52.0,48.0,29.88,North,360,0.0,-999.0,85,-99.99,,,-99.99,,2013-04-17 09:12:00,
2013-04-17 04:22:00,52.0,48.0,29.88,North,359,0.0,-999.0,86,-99.99,,,-99.99,,2013-04-17 09:22:00,
2013-04-17 04:33:00,52.0,48.0,29.88,North,360,0.0,-999.0,86,-99.99,,,-99.99,,2013-04-17 09:33:00,
2013-04-17 04:42:00,52.0,48.0,29.88,North,360,0.0,-999.0,86,-99.99,,,-99.99,,2013-04-17 09:42:00,
2013-04-17 04:52:00,52.0,48.0,29.87,NE,45,0.0,-999.0,86,-99.99,,,-99.99,,2013-04-17 09:52:00,
2013-04-17 05:02:00,52.0,48.0,29.87,ENE,69,0.0,-999.0,86,-99.99,,,-99.99,,2013-04-17 10:02:00,
2013-04-17 05:12:00,52.0,48.0,29.87,ENE,69,0.0,-999.0,86,-99.99,,,-99.99,,2013-04-17 10:12:00,
2013-04-17 05:23:00,52.0,48.0,29.87,ENE,65,0.0,-999.0,85,-99.99,,,-99.99,,2013-04-17 10:23:00,
2013-04-17 05:32:00,53.0,49.0,29.87,ENE,65,0.0,-999.0,85,-99.99,,,-99.99,,2013-04-17 10:32:00,
2013-04-17 05:42:00,53.0,49.0,29.87,ENE,65,0.0,-999.0,85,-99.99,,,-99.99,,2013-04-17 10:42:00,
2013-04-17 05:52:00,53.0,49.0,29.85,ENE,68,0.0,-999.0,85,-99.99,,,-99.99,,2013-04-17 10:52:00,
2013-04-17 06:02:00,53.0,49.0,29.85,East,89,0.0,-999.0,86,-99.99,,,-99.99,,2013-04-17 11:02:00,
2013-04-17 06:12:00,53.0,49.0,29.85,East,89,0.0,-999.0,86,-99.99,,,-99.99,,2013-04-17 11:12:00,
2013-04-17 06:22:00,54.0,51.0,29.84,East,96,0.0,-999.0,88,-99.99,,,-99.99,,2013-04-17 11:22:00,
2013-04-17 06:32:00,54.0,51.0,29.84,ESE,102,0.0,-999.0,88,-99.99,,,-99.99,,2013-04-17 11:32:00,
2013-04-17 06:42:00,54.0,51.0,29.84,ESE,102,0.0,-999.0,88,-99.99,,,-99.99,,2013-04-17 11:42:00,
2013-04-17 06:52:00,55.0,51.0,29.83,East,85,0.0,-999.0,87,-99.99,,,-99.99,,2013-04-17 11:52:00,
2013-04-17 07:02:00,56.0,52.0,29.83,ESE,119,0.0,-999.0,88,-99.99,,,-99.99,,2013-04-17 12:02:00,
2013-04-17 07:12:00,56.0,52.0,29.83,ESE,119,0.0,-999.0,88,-99.99,,,-99.99,,2013-04-17 12:12:00,
2013-04-17 07:22:00,57.0,53.0,29.83,SE,136,0.0,-999.0,88,-99.99,,,-99.99,,2013-04-17 12:22:00,
2013-04-17 07:32:00,57.0,53.0,29.83,ESE,106,0.0,-999.0,88,-99.99,,,-99.99,,2013-04-17 12:32:00,
2013-04-17 07:42:00,57.0,53.0,29.83,ESE,106,0.0,-999.0,88,-99.99,,,-99.99,,2013-04-17 12:42:00,
2013-04-17 07:52:00,58.0,54.0,29.83,ESE,121,0.0,-999.0,88,-99.99,,,-99.99,,2013-04-17 12:52:00,
2013-04-17 08:02:00,59.0,56.0,29.83,ESE,121,0.0,-999.0,89,-99.99,,,-99.99,,2013-04-17 13:02:00,
2013-04-17 08:12:00,59.0,56.0,29.83,ESE,121,0.0,-999.0,89,-99.99,,,-99.99,,2013-04-17 13:12:00,
2013-04-17 08:22:00,62.0,60.0,29.84,SSW,195,0.0,-999.0,92,-99.99,,,-99.99,,2013-04-17 13:22:00,
2013-04-17 08:32:00,64.0,62.0,29.84,South,188,0.0,-999.0,92,-99.99,,,-99.99,,2013-04-17 13:32:00,
2013-04-17 08:42:00,64.0,62.0,29.84,South,188,0.0,-999.0,92,-99.99,,,-99.99,,2013-04-17 13:42:00,
2013-04-17 08:52:00,67.0,65.0,29.84,SSE,161,0.0,-999.0,94,-99.99,,,-99.99,,2013-04-17 13:52:00,
2013-04-17 09:02:00,68.0,66.0,29.84,SSW,202,0.0,-999.0,92,-99.99,,,-99.99,,2013-04-17 14:02:00,
2013-04-17 09:12:00,68.0,66.0,29.84,SSW,202,0.0,-999.0,92,-99.99,,,-99.99,,2013-04-17 14:12:00,
2013-04-17 09:22:00,69.0,66.0,29.83,South,176,1.0,-999.0,90,-99.99,,,-99.99,,2013-04-17 14:22:00,
2013-04-17 09:32:00,70.0,67.0,29.83,SSE,152,1.0,-999.0,89,-99.99,,,-99.99,,2013-04-17 14:32:00,
2013-04-17 09:42:00,71.0,67.0,29.82,SSE,154,2.0,-999.0,86,-99.99,,,-99.99,,2013-04-17 14:42:00,
2013-04-17 09:52:00,71.0,67.0,29.82,SSE,154,2.0,-999.0,86,-99.99,,,-99.99,,2013-04-17 14:52:00,
2013-04-17 10:02:00,72.0,67.0,29.82,SE,138,2.0,-999.0,85,-99.99,,,-99.99,,2013-04-17 15:02:00,
2013-04-17 10:12:00,72.0,67.0,29.82,SSW,199,1.0,-999.0,84,-99.99,,,-99.99,,2013-04-17 15:12:00,
2013-04-17 10:22:00,72.0,67.0,29.82,SSW,199,1.0,-999.0,84,-99.99,,,-99.99,,2013-04-17 15:22:00,
2013-04-17 10:33:00,72.0,67.0,29.82,SSW,199,1.0,-999.0,84,-99.99,,,-99.99,,2013-04-17 15:33:00,
2013-04-17 10:42:00,72.0,67.0,29.82,SSW,199,1.0,-999.0,84,-99.99,,,-99.99,,2013-04-17 15:42:00,
2013-04-17 10:53:00,73.0,67.0,29.82,SSE,148,1.0,-999.0,82,-99.99,,,-99.99,,2013-04-17 15:53:00,
2013-04-17 11:03:00,73.0,67.0,29.82,South,189,1.0,-999.0,81,-99.99,,,-99.99,,2013-04-17 16:03:00,
2013-04-17 11:12:00,73.0,66.0,29.82,South,174,1.0,-999.0,80,-99.99,,,-99.99,,2013-04-17 16:12:00,
2013-04-17 11:22:00,73.0,66.0,29.82,South,174,1.0,-999.0,80,-99.99,,,-99.99,,2013-04-17 16:22:00,
2013-04-17 11:32:00,73.0,66.0,29.82,South,174,1.0,-999.0,80,-99.99,,,-99.99,,2013-04-17 16:32:00,
2013-04-17 11:42:00,73.0,66.0,29.82,South,174,1.0,-999.0,80,-99.99,,,-99.99,,2013-04-17 16:42:00,
2013-04-17 11:52:00,75.0,66.0,29.81,South,189,2.0,-999.0,74,-99.99,,,-99.99,,2013-04-17 16:52:00,
2013-04-17 12:02:00,75.0,66.0,29.81,South,184,3.0,-999.0,74,-99.99,,,-99.99,,2013-04-17 17:02:00,
2013-04-17 12:12:00,75.0,66.0,29.81,South,184,3.0,-999.0,74,-99.99,,,-99.99,,2013-04-17 17:12:00,
2013-04-17 12:22:00,75.0,66.0,29.80,SSE,164,2.0,-999.0,74,-99.99,,,-99.99,,2013-04-17 17:22:00,
2013-04-17 12:33:00,76.0,66.0,29.80,SE,144,3.0,-999.0,72,-99.99,,,-99.99,,2013-04-17 17:33:00,
2013-04-17 12:42:00,76.0,66.0,29.80,SE,144,3.0,-999.0,72,-99.99,,,-99.99,,2013-04-17 17:42:00,
2013-04-17 12:52:00,77.0,66.0,29.79,SSE,161,3.0,-999.0,69,-99.99,,,-99.99,,2013-04-17 17:52:00,
2013-04-17 13:02:00,77.0,66.0,29.79,SSE,161,3.0,-999.0,69,-99.99,,,-99.99,,2013-04-17 18:02:00,
2013-04-17 13:12:00,77.0,66.0,29.79,SSE,161,3.0,-999.0,69,-99.99,,,-99.99,,2013-04-17 18:12:00,
2013-04-17 13:22:00,77.0,65.0,29.78,South,186,2.0,-999.0,67,-99.99,,,-99.99,,2013-04-17 18:22:00,
2013-04-17 13:32:00,77.0,65.0,29.78,South,182,2.0,-999.0,66,-99.99,,,-99.99,,2013-04-17 18:32:00,
2013-04-17 13:42:00,77.0,65.0,29.78,South,182,2.0,-999.0,66,-99.99,,,-99.99,,2013-04-17 18:42:00,
2013-04-17 13:52:00,77.0,64.0,29.77,SW,219,3.0,-999.0,65,-99.99,,,-99.99,,2013-04-17 18:52:00,
2013-04-17 14:02:00,77.0,64.0,29.77,SSE,162,3.0,-999.0,65,-99.99,,,-99.99,,2013-04-17 19:02:00,
2013-04-17 14:12:00,77.0,64.0,29.77,SSE,162,3.0,-999.0,65,-99.99,,,-99.99,,2013-04-17 19:12:00,
2013-04-17 14:22:00,78.0,65.0,29.75,SSE,154,3.0,-999.0,64,-99.99,,,-99.99,,2013-04-17 19:22:00,
2013-04-17 14:32:00,78.0,65.0,29.75,SSE,150,2.0,-999.0,64,-99.99,,,-99.99,,2013-04-17 19:32:00,
2013-04-17 14:42:00,80.0,65.0,29.73,SW,226,2.0,-999.0,61,-99.99,,,-99.99,,2013-04-17 19:42:00,
2013-04-17 14:52:00,80.0,65.0,29.73,SW,226,2.0,-999.0,61,-99.99,,,-99.99,,2013-04-17 19:52:00,
2013-04-17 15:02:00,80.0,64.0,29.73,SSW,196,4.0,-999.0,58,-99.99,,,-99.99,,2013-04-17 20:02:00,
2013-04-17 15:12:00,80.0,64.0,29.73,SSW,196,4.0,-999.0,58,-99.99,,,-99.99,,2013-04-17 20:12:00,
2013-04-17 15:22:00,79.0,64.0,29.71,South,191,4.0,-999.0,60,-99.99,,,-99.99,,2013-04-17 20:22:00,
2013-04-17 15:32:00,79.0,64.0,29.71,South,191,4.0,-999.0,60,-99.99,,,-99.99,,2013-04-17 20:32:00,
2013-04-17 15:42:00,79.0,64.0,29.71,South,191,4.0,-999.0,60,-99.99,,,-99.99,,2013-04-17 20:42:00,
2013-04-17 15:52:00,80.0,64.0,29.69,SSE,155,2.0,-999.0,58,-99.99,,,-99.99,,2013-04-17 20:52:00,
2013-04-17 16:02:00,80.0,64.0,29.69,SE,127,3.0,-999.0,58,-99.99,,,-99.99,,2013-04-17 21:02:00,
2013-04-17 16:12:00,80.0,64.0,29.69,SE,127,3.0,-999.0,58,-99.99,,,-99.99,,2013-04-17 21:12:00,
2013-04-17 16:22:00,81.0,63.0,29.67,South,186,3.0,-999.0,55,-99.99,,,-99.99,,2013-04-17 21:22:00,
2013-04-17 16:32:00,81.0,64.0,29.67,SSW,200,3.0,-999.0,56,-99.99,,,-99.99,,2013-04-17 21:32:00,
2013-04-17 16:42:00,81.0,63.0,29.66,SSE,157,4.0,-999.0,55,-99.99,,,-99.99,,2013-04-17 21:42:00,
2013-04-17 16:53:00,81.0,63.0,29.66,SSE,157,4.0,-999.0,55,-99.99,,,-99.99,,2013-04-17 21:53:00,
2013-04-17 17:02:00,80.0,63.0,29.66,South,176,4.0,-999.0,57,-99.99,,,-99.99,,2013-04-17 22:02:00,
2013-04-17 17:12:00,80.0,64.0,29.66,South,176,2.0,-999.0,58,-99.99,,,-99.99,,2013-04-17 22:12:00,
2013-04-17 17:22:00,80.0,64.0,29.66,South,176,2.0,-999.0,58,-99.99,,,-99.99,,2013-04-17 22:22:00,
2013-04-17 17:33:00,80.0,64.0,29.66,SSE,152,3.0,-999.0,59,-99.99,,,-99.99,,2013-04-17 22:33:00,
2013-04-17 17:42:00,79.0,64.0,29.65,SSE,155,3.0,-999.0,60,-99.99,,,-99.99,,2013-04-17 22:42:00,
2013-04-17 17:53:00,79.0,64.0,29.65,SSE,155,3.0,-999.0,60,-99.99,,,-99.99,,2013-04-17 22:53:00,
2013-04-17 18:02:00,79.0,64.0,29.65,South,185,3.0,-999.0,60,-99.99,,,-99.99,,2013-04-17 23:02:00,
2013-04-17 18:12:00,79.0,64.0,29.65,South,169,3.0,-999.0,60,-99.99,,,-99.99,,2013-04-17 23:12:00,
2013-04-17 18:22:00,79.0,64.0,29.65,South,169,3.0,-999.0,60,-99.99,,,-99.99,,2013-04-17 23:22:00,
2013-04-17 18:32:00,78.0,63.0,29.65,SSW,195,1.0,-999.0,61,-99.99,,,-99.99,,2013-04-17 23:32:00,
2013-04-17 18:42:00,78.0,63.0,29.65,South,186,2.0,-999.0,61,-99.99,,,-99.99,,2013-04-17 23:42:00,
2013-04-17 18:52:00,78.0,63.0,29.65,South,186,2.0,-999.0,61,-99.99,,,-99.99,,2013-04-17 23:52:00,
2013-04-17 19:02:00,78.0,63.0,29.65,South,174,2.0,-999.0,61,-99.99,,,-99.99,,2013-04-18 00:02:00,
2013-04-17 19:12:00,78.0,63.0,29.63,SSW,200,2.0,-999.0,61,-99.99,,,-99.99,,2013-04-18 00:12:00,
2013-04-17 19:22:00,78.0,63.0,29.63,SSW,200,2.0,-999.0,61,-99.99,,,-99.99,,2013-04-18 00:22:00,
2013-04-17 19:32:00,78.0,63.0,29.63,SSE,162,2.0,-999.0,61,-99.99,,,-99.99,,2013-04-18 00:32:00,
2013-04-17 19:42:00,78.0,64.0,29.63,South,184,2.0,-999.0,62,-99.99,,,-99.99,,2013-04-18 00:42:00,
2013-04-17 19:52:00,78.0,64.0,29.63,South,184,2.0,-999.0,62,-99.99,,,-99.99,,2013-04-18 00:52:00,
2013-04-17 20:02:00,77.0,63.0,29.63,SSE,157,2.0,-999.0,62,-99.99,,,-99.99,,2013-04-18 01:02:00,
2013-04-17 20:12:00,77.0,63.0,29.62,SSW,202,2.0,-999.0,61,-99.99,,,-99.99,,2013-04-18 01:12:00,
2013-04-17 20:22:00,77.0,63.0,29.62,SSW,202,2.0,-999.0,61,-99.99,,,-99.99,,2013-04-18 01:22:00,
2013-04-17 20:32:00,77.0,63.0,29.62,South,184,2.0,-999.0,62,-99.99,,,-99.99,,2013-04-18 01:32:00,
2013-04-17 20:42:00,76.0,62.0,29.59,SSE,160,2.0,-999.0,63,-99.99,,,-99.99,,2013-04-18 01:42:00,
2013-04-17 20:52:00,76.0,62.0,29.59,SSE,160,2.0,-999.0,63,-99.99,,,-99.99,,2013-04-18 01:52:00,
2013-04-17 21:02:00,76.0,63.0,29.59,SSE,158,2.0,-999.0,64,-99.99,,,-99.99,,2013-04-18 02:02:00,
2013-04-17 21:12:00,75.0,64.0,29.60,SE,140,2.0,-999.0,69,-99.99,,,-99.99,,2013-04-18 02:12:00,
2013-04-17 21:22:00,75.0,64.0,29.60,SE,140,2.0,-999.0,69,-99.99,,,-99.99,,2013-04-18 02:22:00,
2013-04-17 21:32:00,74.0,64.0,29.60,SSE,151,2.0,-999.0,70,-99.99,,,-99.99,,2013-04-18 02:32:00,
2013-04-17 21:42:00,74.0,64.0,29.60,SSE,151,2.0,-999.0,70,-99.99,,,-99.99,,2013-04-18 02:42:00,
2013-04-17 21:52:00,74.0,64.0,29.60,SSE,151,2.0,-999.0,70,-99.99,,,-99.99,,2013-04-18 02:52:00,
2013-04-17 22:02:00,75.0,64.0,29.59,East,95,4.0,-999.0,68,-99.99,,,-99.99,,2013-04-18 03:02:00,
2013-04-17 22:12:00,73.0,63.0,29.58,East,86,2.0,-999.0,72,-99.99,,,-99.99,,2013-04-18 03:12:00,
2013-04-17 22:22:00,73.0,63.0,29.58,East,86,2.0,-999.0,72,-99.99,,,-99.99,,2013-04-18 03:22:00,
2013-04-17 22:33:00,73.0,64.0,29.58,ESE,104,2.0,-999.0,73,-99.99,,,-99.99,,2013-04-18 03:33:00,
2013-04-17 22:43:00,73.0,64.0,29.57,SE,145,2.0,-999.0,73,-99.99,,,-99.99,,2013-04-18 03:43:00,
2013-04-17 22:53:00,73.0,64.0,29.57,SE,145,2.0,-999.0,73,-99.99,,,-99.99,,2013-04-18 03:53:00,
2013-04-17 23:03:00,74.0,65.0,29.57,SE,134,2.0,-999.0,73,-99.99,,,-99.99,,2013-04-18 04:03:00,
2013-04-17 23:13:00,74.0,65.0,29.57,SE,134,2.0,-999.0,73,-99.99,,,-99.99,,2013-04-18 04:13:00,
2013-04-17 23:23:00,73.0,65.0,29.59,SW,234,1.0,-999.0,76,-99.99,,,-99.99,,2013-04-18 04:23:00,
2013-04-17 23:33:00,68.0,62.0,29.59,NNW,339,2.0,-999.0,80,-99.99,,,-99.99,,2013-04-18 04:33:00,
2013-04-17 23:43:00,67.0,63.0,29.57,West,280,6.0,-999.0,86,-99.99,,,-99.99,,2013-04-18 04:43:00,
2013-04-17 23:53:00,67.0,63.0,29.57,West,280,6.0,-999.0,86,-99.99,,,-99.99,,2013-04-18 04:53:00,